Zurück zum Katalog

FENGYUN 1C DEB

AktivPO
NORAD 37453·DEBRIS·🇨🇳 China

Gestartet May 10, 1999 von Taiyuan Satellite Launch Center

Loading…

Nächste Überflüge (nächste 24 Stunden)

TLE

AlterndSource: Space-Track

Epoche: Sep 9, 2026, 11:21 UTC

1 37453U 99025EHX 26252.47296162  .00001643  00000-0  12483-2 0  9995
2 37453  97.6393 138.2579 0355706 224.6606 132.5387 13.68861072933273

Verfolge FENGYUN 1C DEB in Echtzeit mit AllMySat

Download on the App Store